Location: Rathdrum
(47.8130°N, 116.8960°W)
Time: 06:42:42
(UTC-07:00)

Amateur Radio Satellites - All Passes

Search period start: 30 October 2014 06:12
Search period end: 31 October 2014 06:12
Location: Rathdrum, 47.8130°N, 116.8960°W

Satellite Date Start Highest point End Downlink Frequencies (MHz)
Time Altitude Azimuth
JAS-2 30 Oct 06:20:38 06:28:31 74° 103° (ESE) 06:36:14 435.800 - 435.900 CW/SSB, 435.910 FM
AO-7 30 Oct 06:44:15 06:51:59 45° 302° (WNW) 06:59:44 29.400 - 29.500 MHz
Saudisat 1A 30 Oct 06:49:10 06:53:34 89° 127° (SE) 06:58:00 436.775 MHz
Sapphire 30 Oct 06:51:42 06:52:39 10° 350° (N) 06:53:37 437.095 MHz 1200 baud AX-25 AFSK
STRAND 1 30 Oct 07:06:09 07:11:12 56° 259° (W) 07:16:18 ?
RS-15 30 Oct 07:08:06 07:18:51 57° 244° (WSW) 07:30:03 29.354 - 29.394 USB, Beacon 29.352 USB
Uosat F 30 Oct 07:19:43 07:22:19 14° 306° (NW) 07:24:56 435.120 FM
MaSat-1 30 Oct 07:26:00 07:28:33 49° 57° (ENE) 07:30:55 437.345 MHz
Hamsat 30 Oct 07:45:49 07:49:18 25° 294° (WNW) 07:52:47 145.90 MHz
SO-67 30 Oct 07:56:39 08:00:07 74° 102° (ESE) 08:03:33 435.3500 MHz FM
JAS-2 30 Oct 08:06:19 08:12:53 31° 302° (WNW) 08:19:27 435.800 - 435.900 CW/SSB, 435.910 FM
Saudisat 1A 30 Oct 08:30:27 08:33:44 20° 328° (NNW) 08:37:02 436.775 MHz
Sapphire 30 Oct 08:36:46 08:38:46 12° 17° (NNE) 08:40:45 437.095 MHz 1200 baud AX-25 AFSK
AO-7 30 Oct 08:38:54 08:42:43 14° 326° (NW) 08:46:32 29.400 - 29.500 MHz
HO-68 30 Oct 08:41:19 08:46:54 24° 91° (E) 08:52:27 435.675 MHz FM
PCSat 30 Oct 08:58:20 09:01:13 14° 23° (NNE) 09:04:06 145.825 MHz
RS-15 30 Oct 09:24:20 09:28:36 13° 267° (W) 09:32:56 29.354 - 29.394 USB, Beacon 29.352 USB
KITSAT 1 30 Oct 09:25:05 09:28:00 12° 97° (E) 09:30:56 435.175 FM
UKube-1 30 Oct 09:46:29 09:49:58 23° 94° (E) 09:53:25 145.840 MHz, 145.915 MHz
ZACube-1 30 Oct 09:54:34 09:56:05 12° 87° (E) 09:57:36 437.345 MHz
ISS 30 Oct 10:02:42 10:04:12 13° 134° (SE) 10:05:42 145.800 FM
Sapphire 30 Oct 10:19:12 10:24:01 31° 41° (NE) 10:28:49 437.095 MHz 1200 baud AX-25 AFSK
Oscar 11 30 Oct 10:22:01 10:26:14 50° 100° (E) 10:30:25 145.825 FM, Beacon 2401.500 USB
SO-50 30 Oct 10:27:18 10:29:01 12° 108° (ESE) 10:30:46 436.795 FM
HO-68 30 Oct 10:28:08 10:35:21 78° 290° (WNW) 10:42:31 435.675 MHz FM
FUNcube-1 30 Oct 10:36:00 10:39:45 31° 95° (E) 10:43:27 145.950 - 145.970 MHz USB
PCSat 30 Oct 10:40:55 10:46:07 43° 47° (NE) 10:51:16 145.825 MHz
KITSAT 1 30 Oct 11:13:50 11:21:42 60° 117° (ESE) 11:29:36 435.175 FM
UKube-1 30 Oct 11:22:12 11:26:19 41° 292° (WNW) 11:30:24 145.840 MHz, 145.915 MHz
JAS-1B 30 Oct 11:23:16 11:25:00 11° 47° (NE) 11:26:44 435.800 - 435.900 CW/SSB
ZACube-1 30 Oct 11:28:49 11:33:03 74° 286° (WNW) 11:37:12 437.345 MHz
ISS 30 Oct 11:37:04 11:40:22 66° 152° (SSE) 11:43:41 145.800 FM
Saudisat 1A 30 Oct 11:55:04 11:56:39 12° 18° (NNE) 11:58:13 436.775 MHz
Oscar 19 30 Oct 11:58:19 12:01:49 19° 58° (ENE) 12:05:19 437.125 CW, 437.150 USB
Oscar 11 30 Oct 11:58:59 12:02:05 20° 298° (WNW) 12:05:10 145.825 FM, Beacon 2401.500 USB
Sapphire 30 Oct 12:02:27 12:07:47 58° 242° (WSW) 12:13:05 437.095 MHz 1200 baud AX-25 AFSK
SO-50 30 Oct 12:04:15 12:08:47 84° 127° (SE) 12:13:28 436.795 FM
FUNcube-1 30 Oct 12:12:28 12:16:05 28° 294° (WNW) 12:19:39 145.950 - 145.970 MHz USB
HO-68 30 Oct 12:17:06 12:22:00 20° 311° (NW) 12:26:53 435.675 MHz FM
PCSat 30 Oct 12:24:31 12:29:29 37° 247° (WSW) 12:34:24 145.825 MHz
AO-27 30 Oct 12:32:05 12:35:25 17° 56° (NE) 12:38:45 436.795 MHz FM
Gurwin Techsat 1B 30 Oct 12:42:58 12:45:01 12° 52° (NE) 12:47:05 435.225 FM
Oscar 16 30 Oct 12:43:29 12:48:19 43° 67° (ENE) 12:53:10 437.025 USB, Beacon 2401.1428
TMSAT-1 30 Oct 12:50:59 12:52:13 11° 51° (NE) 12:53:27 436.925 FM
UOSAT-12 30 Oct 12:54:29 12:58:35 31° 117° (ESE) 13:02:45 437.025 FM, 437.400 FM
JAS-1B 30 Oct 13:08:50 13:14:27 63° 70° (ENE) 13:20:10 435.800 - 435.900 CW/SSB
KITSAT 1 30 Oct 13:09:46 13:17:26 45° 320° (NW) 13:25:09 435.175 FM
ISS 30 Oct 13:13:58 13:17:11 45° 351° (N) 13:20:26 145.800 FM
Uribyol 2 30 Oct 13:14:34 13:19:20 37° 65° (ENE) 13:24:08 436.500 FM
ITAMSAT 1 30 Oct 13:22:09 13:27:00 40° 66° (ENE) 13:31:53 435.822 SSB
AO-Echo 30 Oct 13:26:50 13:31:42 53° 70° (ENE) 13:36:45 ?
Saudisat 1A 30 Oct 13:33:30 13:37:32 33° 40° (NE) 13:41:33 436.775 MHz
Oscar 19 30 Oct 13:35:29 13:40:37 73° 257° (WSW) 13:45:46 437.125 CW, 437.150 USB
SO-50 30 Oct 13:46:20 13:49:56 22° 328° (NNW) 13:53:38 436.795 FM
AO-7 30 Oct 14:03:48 14:10:12 26° 48° (NE) 14:16:38 29.400 - 29.500 MHz
AO-27 30 Oct 14:09:03 14:14:17 84° 255° (WSW) 14:19:34 436.795 MHz FM
Gurwin Techsat 1B 30 Oct 14:18:46 14:24:01 67° 72° (ENE) 14:29:19 435.225 FM
Oscar 16 30 Oct 14:23:22 14:27:49 29° 266° (W) 14:32:16 437.025 USB, Beacon 2401.1428
TMSAT-1 30 Oct 14:25:52 14:31:04 58° 70° (ENE) 14:36:17 436.925 FM
UOSAT-12 30 Oct 14:34:08 14:38:37 44° 316° (NW) 14:43:10 437.025 FM, 437.400 FM
ISS 30 Oct 14:51:00 14:54:16 48° 11° (NNE) 14:57:31 145.800 FM
Uribyol 2 30 Oct 14:54:06 14:58:50 34° 264° (W) 15:03:36 436.500 FM
JAS-2 30 Oct 14:56:34 14:59:02 12° 42° (NE) 15:01:35 435.800 - 435.900 CW/SSB, 435.910 FM
JAS-1B 30 Oct 15:01:42 15:05:47 20° 270° (W) 15:09:54 435.800 - 435.900 CW/SSB
ITAMSAT 1 30 Oct 15:01:58 15:06:35 31° 265° (W) 15:11:14 435.822 SSB
AO-Echo 30 Oct 15:06:53 15:10:49 23° 269° (W) 15:14:52 ?
KITSAT 1 30 Oct 15:09:05 15:15:11 23° 348° (NNW) 15:21:17 435.175 FM
Saudisat 1A 30 Oct 15:13:02 15:17:12 41° 240° (WSW) 15:21:20 436.775 MHz
Uosat F 30 Oct 15:18:07 15:22:25 30° 63° (ENE) 15:26:46 435.120 FM
Oscar 19 30 Oct 15:20:28 15:20:52 10° 275° (W) 15:21:16 437.125 CW, 437.150 USB
SO-50 30 Oct 15:31:07 15:32:16 11° 353° (N) 15:33:26 436.795 FM
AO-27 30 Oct 15:52:31 15:54:36 12° 274° (W) 15:56:42 436.795 MHz FM
AO-7 30 Oct 15:53:43 16:02:00 88° 69° (ENE) 16:10:21 29.400 - 29.500 MHz
Gurwin Techsat 1B 30 Oct 16:00:44 16:04:29 19° 270° (W) 16:08:15 435.225 FM
TMSAT-1 30 Oct 16:07:18 16:11:22 22° 269° (W) 16:15:28 436.925 FM
UOSAT-12 30 Oct 16:17:18 16:19:57 15° 339° (NNW) 16:22:37 437.025 FM, 437.400 FM
ISS 30 Oct 16:27:45 16:31:01 53° 211° (SSW) 16:34:17 145.800 FM
JAS-2 30 Oct 16:36:06 16:42:12 47° 64° (ENE) 16:49:04 435.800 - 435.900 CW/SSB, 435.910 FM
Uosat F 30 Oct 16:56:18 17:01:04 42° 262° (W) 17:05:52 435.120 FM
Hamsat 30 Oct 17:06:07 17:09:59 38° 69° (ENE) 17:13:53 145.90 MHz
KITSAT 1 30 Oct 17:07:22 17:13:46 25° 18° (NNE) 17:20:08 435.175 FM
SO-50 30 Oct 17:12:36 17:14:57 13° 18° (NNE) 17:17:19 436.795 FM
OPAL 30 Oct 17:19:03 17:22:47 21° 94° (E) 17:26:30 ?
AO-7 30 Oct 17:49:38 17:55:49 23° 270° (W) 18:02:04 29.400 - 29.500 MHz
UOSAT-12 30 Oct 18:01:22 18:02:10 10° 4° (N) 18:02:57 437.025 FM, 437.400 FM
JAS-2 30 Oct 18:21:31 18:27:24 39° 267° (W) 18:34:01 435.800 - 435.900 CW/SSB, 435.910 FM
Oscar 10/S400 30 Oct 18:27:44 18:51:42 48° 184° (S) 01:39:29 145.825 - 145.975 CW/USB, Beacon 145.810 USB
SO-67 30 Oct 18:32:18 18:35:31 39° 72° (ENE) 18:38:46 435.3500 MHz FM
Hamsat 30 Oct 18:42:48 18:46:05 22° 267° (W) 18:49:23 145.90 MHz
SO-50 30 Oct 18:52:24 18:56:52 36° 41° (NE) 19:01:23 436.795 FM
OPAL 30 Oct 18:57:10 19:02:02 56° 292° (WNW) 19:06:51 ?
KITSAT 1 30 Oct 19:03:11 19:11:08 55° 45° (NE) 19:19:01 435.175 FM
AO-40 30 Oct 19:06:31 00:10:58 34° 154° (SSE) 01:51:30 Beacon 2401.320
STRAND 1 30 Oct 19:13:19 19:18:08 38° 97° (E) 19:22:53 ?
HO-68 30 Oct 19:13:58 19:19:48 28° 54° (NE) 19:25:40 435.675 MHz FM
RS-15 30 Oct 19:29:06 19:35:23 17° 97° (E) 19:41:37 29.354 - 29.394 USB, Beacon 29.352 USB
UOSAT-12 30 Oct 19:40:48 19:44:12 19° 28° (NNE) 19:47:34 437.025 FM, 437.400 FM
SO-67 30 Oct 20:06:41 20:08:41 15° 269° (W) 20:10:43 435.3500 MHz FM
SO-50 30 Oct 20:32:57 20:37:32 43° 240° (WSW) 20:42:08 436.795 FM
OPAL 30 Oct 20:39:49 20:39:53 10° 312° (NW) 20:39:57 ?
UKube-1 30 Oct 20:45:01 20:48:51 31° 66° (ENE) 20:52:43 145.840 MHz, 145.915 MHz
STRAND 1 30 Oct 20:52:40 20:57:15 33° 296° (WNW) 21:01:49 ?
ZACube-1 30 Oct 20:53:41 20:56:40 18° 61° (ENE) 20:59:36 437.345 MHz
KITSAT 1 30 Oct 20:58:53 21:06:26 45° 247° (WSW) 21:13:57 435.175 FM
HO-68 30 Oct 20:59:45 21:06:55 75° 255° (WSW) 21:14:09 435.675 MHz FM
Oscar 11 30 Oct 21:20:07 21:24:23 61° 73° (ENE) 21:28:39 145.825 FM, Beacon 2401.500 USB
UOSAT-12 30 Oct 21:20:25 21:25:10 73° 50° (NE) 21:29:50 437.025 FM, 437.400 FM
RS-15 30 Oct 21:34:40 21:45:30 69° 120° (ESE) 21:56:20 29.354 - 29.394 USB, Beacon 29.352 USB
FUNcube-1 30 Oct 21:35:13 21:39:26 40° 69° (ENE) 21:43:35 145.950 - 145.970 MHz USB
UKube-1 30 Oct 22:21:10 22:25:01 30° 264° (W) 22:28:55 145.840 MHz, 145.915 MHz
ZACube-1 30 Oct 22:28:09 22:32:38 62° 259° (W) 22:37:03 437.345 MHz
MaSat-1 30 Oct 22:38:39 22:42:29 77° 118° (ESE) 22:45:55 437.345 MHz
HO-68 30 Oct 22:52:02 22:55:51 15° 275° (W) 22:59:41 435.675 MHz FM
Oscar 11 30 Oct 22:58:26 23:00:58 15° 270° (W) 23:03:30 145.825 FM, Beacon 2401.500 USB
UOSAT-12 30 Oct 23:01:38 23:04:47 18° 249° (WSW) 23:07:54 437.025 FM, 437.400 FM
FUNcube-1 30 Oct 23:12:15 23:15:56 24° 266° (W) 23:19:35 145.950 - 145.970 MHz USB
RS-15 30 Oct 23:48:03 23:58:31 49° 327° (NNW) 00:09:08 29.354 - 29.394 USB, Beacon 29.352 USB
MaSat-1 31 Oct 00:16:33 00:18:13 13° 315° (NW) 00:19:49 437.345 MHz
JAS-1B 31 Oct 00:48:27 00:52:42 16° 88° (E) 00:57:19 435.800 - 435.900 CW/SSB
Oscar 16 31 Oct 00:54:12 00:55:28 11° 85° (E) 00:56:44 437.025 USB, Beacon 2401.1428
Sapphire 31 Oct 01:09:44 01:10:11 10° 101° (E) 01:10:38 437.095 MHz 1200 baud AX-25 AFSK
PCSat 31 Oct 01:28:07 01:31:33 17° 105° (ESE) 01:35:00 145.825 MHz
AO-Echo 31 Oct 01:32:01 01:34:52 14° 87° (E) 01:37:42 ?
ITAMSAT 1 31 Oct 01:34:43 01:35:19 10° 85° (E) 01:35:55 435.822 SSB
Oscar 19 31 Oct 01:43:54 01:48:24 30° 95° (E) 01:52:54 437.125 CW, 437.150 USB
RS-15 31 Oct 02:04:38 02:14:11 33° 0° (N) 02:23:58 29.354 - 29.394 USB, Beacon 29.352 USB
AO-27 31 Oct 02:19:06 02:23:32 27° 94° (E) 02:27:56 436.795 MHz FM
Oscar 16 31 Oct 02:30:32 02:35:41 78° 104° (ESE) 02:40:49 437.025 USB, Beacon 2401.1428
Gurwin Techsat 1B 31 Oct 02:32:18 02:36:13 20° 90° (E) 02:40:06 435.225 FM
JAS-1B 31 Oct 02:37:10 02:44:07 77° 105° (ESE) 02:52:27 435.800 - 435.900 CW/SSB
TMSAT-1 31 Oct 02:39:14 02:42:46 18° 89° (E) 02:46:17 436.925 FM
Sapphire 31 Oct 02:47:12 02:52:33 66° 119° (ESE) 02:57:57 437.095 MHz 1200 baud AX-25 AFSK
Uribyol 2 31 Oct 03:02:40 03:07:52 66° 102° (ESE) 03:13:01 436.500 FM
OPAL 31 Oct 03:02:51 03:03:52 11° 48° (NE) 03:04:53 ?
PCSat 31 Oct 03:08:51 03:14:17 83° 304° (NW) 03:19:45 145.825 MHz
AO-Echo 31 Oct 03:08:58 03:14:20 88° 285° (WNW) 03:19:38 ?
ITAMSAT 1 31 Oct 03:10:30 03:15:45 73° 103° (ESE) 03:20:56 435.822 SSB
Oscar 19 31 Oct 03:23:05 03:27:51 40° 293° (WNW) 03:32:36 437.125 CW, 437.150 USB
AO-7 31 Oct 03:52:16 03:58:38 24° 90° (E) 04:04:59 29.400 - 29.500 MHz
AO-27 31 Oct 03:58:15 04:03:15 46° 292° (WNW) 04:08:13 436.795 MHz FM
Oscar 16 31 Oct 04:11:06 04:14:27 18° 303° (WNW) 04:17:48 437.025 USB, Beacon 2401.1428
Gurwin Techsat 1B 31 Oct 04:11:22 04:16:38 63° 289° (WNW) 04:21:52 435.225 FM
TMSAT-1 31 Oct 04:17:57 04:23:15 72° 288° (WNW) 04:28:31 436.925 FM
RS-15 31 Oct 04:19:15 04:29:53 49° 33° (NNE) 04:40:52 29.354 - 29.394 USB, Beacon 29.352 USB
JAS-1B 31 Oct 04:28:50 04:34:18 27° 302° (WNW) 04:40:31 435.800 - 435.900 CW/SSB
Sapphire 31 Oct 04:31:46 04:36:25 28° 320° (NW) 04:41:06 437.095 MHz 1200 baud AX-25 AFSK
OPAL 31 Oct 04:36:46 04:41:45 57° 68° (ENE) 04:46:42 ?
Uribyol 2 31 Oct 04:43:03 04:46:52 21° 301° (WNW) 04:50:40 436.500 FM
AO-Echo 31 Oct 04:49:11 04:52:21 16° 304° (NW) 04:55:31 ?
ITAMSAT 1 31 Oct 04:51:02 04:54:42 20° 302° (WNW) 04:58:20 435.822 SSB
PCSat 31 Oct 04:54:26 04:58:32 21° 326° (NW) 05:02:39 145.825 MHz
STRAND 1 31 Oct 04:56:49 04:59:17 14° 54° (NE) 05:01:45 ?
Uosat F 31 Oct 05:00:12 05:05:04 46° 99° (E) 05:09:54 435.120 FM
Saudisat 1A 31 Oct 05:23:03 05:26:26 22° 114° (ESE) 05:29:49 436.775 MHz
JAS-2 31 Oct 05:26:06 05:33:14 36° 92° (E) 05:40:10 435.800 - 435.900 CW/SSB, 435.910 FM
AO-7 31 Oct 05:44:03 05:52:25 86° 291° (WNW) 06:00:47 29.400 - 29.500 MHz
Gurwin Techsat 1B 31 Oct 05:53:49 05:55:35 12° 309° (NW) 05:57:22 435.225 FM
TMSAT-1 31 Oct 05:59:52 06:02:16 13° 307° (NW) 06:04:39 436.925 FM
